Location: ?p Thanh B�nh
(16.5833°N, 107.5333°E)
Time: 05:44:27
(UTC+00:00)

SL-27 R/B - Pass Details

Date: 29 October 2020
Orbit: 419 x 469 km, 74.7° (Epoch: 27 November)

Event Time Altitude Azimuth Distance (km) Brightness Sun altitude
Rises 21:49:25 0° 194° (SSW) 2,464 6.1 -14.3°
Reaches altitude 10° 21:51:30 10° 194° (SSW) 1,599 5.1 -13.8°
Maximum altitude 21:55:01 83° 280° (W) 471 2.3 -12.9°
Drops below altitude 10° 21:58:36 10° 11° (N) 1,620 5.2 -12.1°
Sets 22:00:42 0° 12° (NNE) 2,499 6.2 -11.6°
